sat.trackr.live / text

‹ back to catalog

HULIANWANG DIGUI-04

NORAD 62326 · 2024-240D

PAYLOAD ACTIVE UNKNOWN

§ Identity

Operator
Country
PRC
Launch date
2024-12-16
Launch site
WSC
Launch vehicle
Mass (kg)
RCS (m²)

External: N2YO · Heavens-Above · Gunter

§ Orbital elements

Epoch: 2026-09-22T21:26:55.029408Z

Period
108.73 min
Inclination
86.4971°
Eccentricity
0.0001497
Mean motion
13.24413217 rev/d
Perigee alt
1,166.8 km
Apogee alt
1,169.0 km
Semi-major
7,546.0 km
B*
1.5420e-5
RAAN
310.2254°
Arg perigee
91.1654°
Mean anomaly
268.9652°
Rev number
8,557

§ Raw data

HULIANWANG DIGUI-041 62326U 24240D   26265.89369247  .00000021  00000+0  15420-4 0  99982 62326  86.4971 310.2254 0001497  91.1654 268.9652 13.24413217 85571

JSON: /api/v1/satellites/62326 · /tle

For live sub-satellite position, see the globe view (requires WebGL).

§ Visibility from observer

Set your observer location to see the next 7 days of passes ≥ 10°. The values pass through the URL so the page stays shareable.

No JS? Fill the form by hand. The geolocation button needs JavaScript.